TimeCST,TemperatureF,Dew PointF,Humidity,Sea Level PressureIn,VisibilityMPH,Wind Direction,Wind SpeedMPH,Gust SpeedMPH,PrecipitationIn,Events,Conditions,WindDirDegrees,DateUTC
12:52 AM,7.0,-2.0,67,30.36,10.0,NW,12.7,-,N/A,,Clear,310,2013-02-20 06:52:00
1:52 AM,6.1,-2.0,69,30.38,10.0,NW,11.5,-,N/A,,Clear,310,2013-02-20 07:52:00
2:52 AM,6.1,-2.0,69,30.39,10.0,NW,9.2,-,N/A,,Clear,310,2013-02-20 08:52:00
3:52 AM,5.0,-2.9,70,30.40,10.0,NW,10.4,-,N/A,,Clear,310,2013-02-20 09:52:00
4:52 AM,5.0,-2.9,70,30.39,10.0,WNW,9.2,-,N/A,,Clear,300,2013-02-20 10:52:00
5:52 AM,5.0,-2.9,70,30.40,10.0,NW,11.5,-,N/A,,Clear,310,2013-02-20 11:52:00
6:52 AM,5.0,-2.9,70,30.40,10.0,NNW,8.1,-,N/A,,Clear,330,2013-02-20 12:52:00
7:52 AM,7.0,-0.9,70,30.43,10.0,NW,5.8,-,N/A,,Clear,310,2013-02-20 13:52:00
8:52 AM,10.0,1.0,67,30.43,10.0,NNW,6.9,-,N/A,,Clear,330,2013-02-20 14:52:00
9:52 AM,12.9,3.0,65,30.44,10.0,NW,5.8,-,N/A,,Clear,320,2013-02-20 15:52:00
10:52 AM,15.8,6.8,68,30.39,10.0,NW,4.6,-,N/A,,Clear,310,2013-02-20 16:52:00
11:52 AM,18.0,9.0,68,30.47,10.0,West,9.2,-,N/A,,Clear,270,2013-02-20 17:52:00
12:52 PM,19.9,10.0,65,30.45,10.0,WNW,8.1,-,N/A,,Clear,290,2013-02-20 18:52:00
1:52 PM,21.9,10.9,63,30.40,10.0,NW,8.1,-,N/A,,Clear,320,2013-02-20 19:52:00
2:52 PM,23.0,12.9,65,30.38,10.0,North,6.9,-,N/A,,Clear,350,2013-02-20 20:52:00
3:52 PM,24.1,12.0,60,30.38,10.0,Variable,3.5,-,N/A,,Clear,0,2013-02-20 21:52:00
4:52 PM,24.1,12.0,60,30.39,10.0,Calm,Calm,-,N/A,,Clear,0,2013-02-20 22:52:00
5:52 PM,21.9,12.0,66,30.38,10.0,Calm,Calm,-,N/A,,Clear,0,2013-02-20 23:52:00
6:52 PM,19.0,12.0,74,30.38,10.0,Calm,Calm,-,N/A,,Clear,0,2013-02-21 00:52:00
7:52 PM,15.1,10.9,84,30.37,10.0,East,4.6,-,N/A,,Clear,100,2013-02-21 01:52:00
8:52 PM,15.8,10.4,79,30.34,10.0,ESE,5.8,-,N/A,,Clear,110,2013-02-21 02:52:00
9:52 PM,16.0,10.9,81,30.40,10.0,East,6.9,-,N/A,,Clear,90,2013-02-21 03:52:00
10:52 PM,16.0,10.0,77,30.41,10.0,East,3.5,-,N/A,,Clear,100,2013-02-21 04:52:00
11:52 PM,15.1,10.0,80,30.40,10.0,ESE,3.5,-,N/A,,Clear,110,2013-02-21 05:52:00